Change the Weather History Date:

Thursday, December 27, 2012

  Actual Average Record
Temperature  
Mean Temperature 58 °F -  
Max Temperature 66 °F - - ()
Min Temperature 50 °F - - ()
Degree Days  
Heating Degree Days 7    
Growing Degree Days 8 (Base 50)    
Moisture  
Dew Point 50 °F    
Average Humidity 67    
Maximum Humidity 84    
Minimum Humidity 55    
Precipitation  
Precipitation 0.00 in - - ()
Sea Level Pressure  
Sea Level Pressure 29.90 in    
Wind  
Wind Speed 4 mph (NNW)    
Max Wind Speed 8 mph    
Max Gust Speed -    
Visibility 10 miles    
Events      
T = Trace of Precipitation, MM = Missing Value Source: NWS Daily Summary

Daily Weather History Graph

Daily Weather History Graph

Search for Another Location

Airport or City:

Trip Planner

Search our weather history database for the weather conditions in past years. The results will help you decide how hot, cold, wet, or windy it might be!

Date:

Astronomy

Dec. 27, 2012 Rise Set
Actual Time 7:15 AM CST 5:46 PM CST
Civil Twilight 6:50 AM CST 6:11 PM CST
Nautical Twilight 6:21 AM CST 6:40 PM CST
Astronomical Twilight 5:53 AM CST 7:08 PM CST
Moon 5:27 PM CST (12/27) 6:30 AM CST (12/27)
Length of Visible Light 11h 21m
Length of Day
10h 30m
Full, 100% of the Moon is Illuminated
Dec 27
Full
Dec 28
Full
Jan 4
Last Quarter
Jan 11
New
Jan 18
First Quarter

Hourly Weather History & Observations

Time (CST) Temp. Dew Point Humidity Pressure Visibility Wind Dir Wind Speed Gust Speed Precip Events Conditions
12:53 AM 50.0 °F 39.9 °F 68% 30.07 in 10.0 mi NW 5.8 mph - N/A   Overcast
1:53 AM 51.1 °F 41.0 °F 68% 30.04 in 10.0 mi NNW 4.6 mph - N/A   Overcast
2:53 AM 52.0 °F 42.1 °F 69% 30.03 in 10.0 mi NNW 3.5 mph - N/A   Overcast
3:53 AM 53.1 °F 43.0 °F 69% 30.01 in 10.0 mi NNW 4.6 mph - N/A   Overcast
4:53 AM 53.1 °F 42.1 °F 66% 29.98 in 10.0 mi NNW 4.6 mph - N/A   Overcast
5:53 AM 53.1 °F 43.0 °F 69% 29.96 in 10.0 mi North 4.6 mph - N/A   Overcast
6:53 AM 54.0 °F 44.1 °F 69% 29.96 in 10.0 mi NNW 6.9 mph - N/A   Overcast
7:53 AM 55.0 °F 45.0 °F 69% 29.96 in 10.0 mi NW 5.8 mph - N/A   Overcast
8:07 AM 55.4 °F 44.6 °F 67% 29.97 in 10.0 mi NW 8.1 mph - N/A   Overcast
8:18 AM 55.4 °F 44.6 °F 67% 29.97 in 10.0 mi NW 6.9 mph - N/A   Overcast
8:53 AM 55.9 °F 45.0 °F 67% 29.96 in 10.0 mi NW 3.5 mph - N/A   Overcast
9:53 AM 60.1 °F 46.9 °F 62% 29.97 in 10.0 mi West 3.5 mph - N/A   Overcast
10:02 AM 59.0 °F 46.4 °F 63% 29.97 in 10.0 mi WNW 4.6 mph - N/A   Overcast
10:31 AM 60.8 °F 46.4 °F 59% 29.97 in 10.0 mi WNW 5.8 mph - N/A   Overcast
10:41 AM 60.8 °F 46.4 °F 59% 29.97 in 10.0 mi WNW 6.9 mph - N/A   Overcast
10:53 AM 60.1 °F 46.0 °F 60% 29.96 in 10.0 mi WNW 5.8 mph - N/A   Overcast
11:04 AM 60.8 °F 46.4 °F 59% 29.96 in 10.0 mi NNW 5.8 mph - N/A   Overcast
11:14 AM 60.8 °F 46.4 °F 59% 29.95 in 10.0 mi NW 4.6 mph - N/A   Overcast
11:21 AM 60.8 °F 46.4 °F 59% 29.95 in 10.0 mi NW 4.6 mph - N/A   Overcast
11:32 AM 62.6 °F 46.4 °F 55% 29.94 in 10.0 mi NW 4.6 mph - N/A   Overcast
11:53 AM 63.0 °F 46.9 °F 56% 29.93 in 10.0 mi NW 4.6 mph - N/A   Overcast
12:16 PM 64.4 °F 48.2 °F 56% 29.92 in 10.0 mi NW 3.5 mph - N/A   Overcast
12:53 PM 64.9 °F 50.0 °F 58% 29.89 in 10.0 mi Calm Calm - N/A   Overcast
1:13 PM 66.2 °F 50.0 °F 56% 29.87 in 10.0 mi Calm Calm - N/A   Overcast
1:24 PM 66.2 °F 51.8 °F 60% 29.87 in 9.0 mi Calm Calm - N/A   Overcast
1:53 PM 66.9 °F 51.1 °F 57% 29.84 in 9.0 mi NE 6.9 mph - N/A   Overcast
2:19 PM 64.4 °F 51.8 °F 64% 29.83 in 9.0 mi NE 8.1 mph - N/A   Overcast
2:53 PM 64.0 °F 51.1 °F 63% 29.82 in 10.0 mi NE 6.9 mph - N/A   Overcast
3:19 PM 64.4 °F 51.8 °F 64% 29.81 in 10.0 mi NE 5.8 mph - N/A   Overcast
3:26 PM 66.2 °F 51.8 °F 60% 29.81 in 10.0 mi ENE 5.8 mph - N/A   Overcast
4:04 PM 66.2 °F 53.6 °F 64% 29.80 in 10.0 mi ENE 4.6 mph - N/A   Overcast
4:53 PM 66.9 °F 55.9 °F 68% 29.80 in 9.0 mi ENE 3.5 mph - N/A   Mostly Cloudy
6:53 PM 63.0 °F 55.9 °F 78% 29.80 in 10.0 mi ENE 3.5 mph - N/A   Scattered Clouds
7:53 PM 64.0 °F 57.0 °F 78% 29.82 in 10.0 mi Calm Calm - N/A   Mostly Cloudy
8:01 PM 64.4 °F 57.2 °F 77% 29.82 in 10.0 mi North 3.5 mph - N/A   Overcast
8:26 PM 64.4 °F 55.4 °F 73% 29.82 in 10.0 mi Calm Calm - N/A   Mostly Cloudy
8:40 PM 64.4 °F 55.4 °F 73% 29.82 in 10.0 mi Calm Calm - N/A   Mostly Cloudy
8:53 PM 64.0 °F 57.0 °F 78% 29.82 in 10.0 mi Calm Calm - N/A   Overcast
9:16 PM 64.4 °F 57.2 °F 77% 29.82 in 10.0 mi Calm Calm - N/A   Mostly Cloudy
9:53 PM 64.9 °F 59.0 °F 81% 29.82 in 10.0 mi NE 4.6 mph - N/A   Mostly Cloudy
10:24 PM 64.4 °F 59.0 °F 83% 29.82 in 10.0 mi Calm Calm - N/A   Overcast
10:50 PM 64.4 °F 59.0 °F 83% 29.80 in 10.0 mi Calm Calm - N/A   Scattered Clouds
10:53 PM 64.9 °F 59.0 °F 81% 29.80 in 10.0 mi Calm Calm - N/A   Scattered Clouds
11:53 PM 64.9 °F 60.1 °F 84% 29.81 in 10.0 mi Calm Calm - N/A   Overcast